Location: Pace/Milton
(30.6162°N, 87.1503°W)
Time: 12:04:01
(UTC-06:00)

Hubble Space Telescope - Pass Details

Date: 30 November 2021
Orbit: 535 x 538 km, 28.5° (Epoch: 21 January)

Event Time Altitude Azimuth Distance (km) Brightness Sun altitude
Exits shadow 04:35:14 63° 162° (SSE) 593 1.0 -23.7°
Drops below altitude 10° 04:39:05 10° 101° (E) 1,775 4.5 -22.9°
Sets 04:41:22 0° 98° (E) 2,666 5.8 -22.4°
